Regional Weather Roundup
Issued by NWS

Home | Current Version | Previous Version | Graphics & Text | Print | Product List | Glossary On
Versions: 1 2 3 4 5 6 7 8 9 10 11 12 13 14 15 16 17 18 19 20 21 22 23 24 25 26 27 28 29 30 31 32 33 34 35 36 37 38 39 40 41 42 43 44 45 46 47 48 49 50
761
ASUS44 KLIX 210405
RWRLA
LOUISIANA WEATHER ROUNDUP
NATIONAL WEATHER SERVICE NEW ORLEANS LA
1000 PM CST THU NOV 20 2014

NOTE: "FAIR" INDICATES FEW OR NO CLOUDS BELOW 12,000 FEET WITH NO
      SIGNIFICANT WEATHER AND/OR OBSTRUCTIONS TO VISIBILITY.
      SKY/WX - SKY CONDITION AND SIGNIFICANT WEATHER.
      TMP - AIR TEMPERATURE.    DP   - DEWPOINT TEMPERATURE.
      RH  - RELATIVE HUMIDITY.  PRES - PRESSURE.
      HX  - HEAT INDEX.         WCI  - WIND CHILL INDEX.

*  THESE STATIONS ARE NOT NWS OR FAA STATIONS AND ARE NOT UNDER
   NWS QUALITY CONTROL.

LAZ040-048-061>063-065-066-069-210500-
SOUTHEAST LOUISIANA

CITY           SKY/WX    TMP DP  RH WIND       PRES   REMARKS
N.O. AUDUBON     N/A     56  47  71 MISG        N/A
N.O. INTL ARPT PTCLDY    55  45  68 SE9       30.24S
N.O. LAKEFRONT CLEAR     53  45  74 S8        30.25S
N.O. DOWNTOWN* FAIR      57  43  58 S6        30.25S
SLIDELL        CLEAR     46  42  86 CALM      30.24S
BATON ROUGE    CLEAR     51  44  77 E5        30.22S
BOOTHVILLE     CLEAR     56  49  77 E6        30.26S
BELLE CHASSE   PTCLDY    54  45  71 SE6       30.24S
BOGALUSA*        N/A     46  42  86 CALM      30.26R
NEW ROADS*     FAIR      53  47  77 CALM      30.22R
GONZALES*      FAIR      54  47  78 CALM      30.22S
HAMMOND*       CLEAR     48  43  81 CALM      30.25S
HOUMA*         CLEAR     52  47  84 E5        30.24S
PORT FOURCHON* CLEAR     63  48  59 E10G17    30.27S

$$

LAZ041-044-053-054-210500-
SOUTHWEST LOUISIANA

CITY           SKY/WX    TMP DP  RH WIND       PRES   REMARKS
LAKE CHARLES   MOCLDY    58  51  78 SE10      30.17S
LAFAYETTE      CLEAR     56  48  74 VRB6      30.20F
PATTERSON      CLEAR     54  46  76 SE8         N/A
SALT POINT       N/A     55  50  83 E6        30.21S
NEW IBERIA     CLEAR     54  48  80 SE9       30.21F
CHENAULT AIRPK PTCLDY    56  51  81 SE10      30.18S

$$

LAZ027-028-210500-
CENTRAL LOUISIANA

CITY           SKY/WX    TMP DP  RH WIND       PRES   REMARKS
FORT POLK      MOCLDY    57  49  75 S10       30.16S
ALEXANDRIA INT CLEAR     56  48  74 S7        30.16S
ALEXANDRIA     CLEAR     50  47  89 CALM      30.18S

$$

LAZ001-002-210500-
NORTHWEST LOUISIANA

CITY           SKY/WX    TMP DP  RH WIND       PRES   REMARKS
SHREVEPORT     MOCLDY    57  54  89 S7        30.14R
BARKSDALE AFB  PTCLDY    56  53  91 S9        30.14R
DTN SHREVEPORT PTCLDY    58  52  80 S9        30.14R

$$

LAZ014-016-210500-
NORTHEAST LOUISIANA

CITY           SKY/WX    TMP DP  RH WIND       PRES   REMARKS
MONROE         CLOUDY    51  50  96 CALM      30.19R
TALLULAH       CLEAR     49  46  90 SE5       30.20R

$$




USA.gov is the U.S. government's official web portal to all federal, state and local government web resources and services.